Phuket, Thailand

8:38 AM ICT on February 26, 2017 (GMT +0700)
Phuket International

Weather History for VTSP - July, 2013

Change the Weather History Date:

Monday, July 1, 2013

  Actual Average Record
Temperature  
Mean Temperature 80 °F -  
Max Temperature 87 °F 88 °F 96 °F (1996)
Min Temperature 74 °F 78 °F 73 °F (1999)
Cooling Degree Days 16    
Growing Degree Days 30 (Base 50)    
Moisture  
Dew Point 75 °F    
Average Humidity 81    
Maximum Humidity 94    
Minimum Humidity 66    
Precipitation  
Precipitation 0.35 in 0.37 in - ()
Sea Level Pressure  
Sea Level Pressure 29.77 in    
Wind  
Wind Speed 7 mph ()    
Max Wind Speed 17 mph    
Max Gust Speed -    
Visibility 4.5 miles    
Events Rain    
Averages and records for this station are not official NWS values.
T = Trace of Precipitation, MM = Missing Value Source: Averaged Metar Reports

Daily Weather History Graph

Daily Weather History Graph

Search for Another Location

Airport or City:

Trip Planner

Search our weather history database for the weather conditions in past years. The results will help you decide how hot, cold, wet, or windy it might be!

Date:

Astronomy

Jul. 01, 2013 Rise Set
Actual Time 6:12 AM ICT 6:48 PM ICT
Civil Twilight 5:50 AM ICT 7:11 PM ICT
Nautical Twilight 5:23 AM ICT 7:37 PM ICT
Astronomical Twilight 4:56 AM ICT 8:04 PM ICT
Moon 12:39 AM ICT (7/1) 1:12 PM ICT (7/1)
Length of Visible Light 13h 21m
Length of Day
12h 35m
Last Quarter, 40% of the Moon is Illuminated
Jul 1
Last Quarter
Jul 8
New
Jul 16
First Quarter
Jul 23
Full
Jul 30
Last Quarter

Hourly Weather History & Observations

Time (ICT) Temp. Heat Index Dew Point Humidity Pressure Visibility Wind Dir Wind Speed Gust Speed Precip Events Conditions
12:00 AM 78.8 °F - 75.2 °F 89% 29.83 in 5.0 mi NW 3.5 mph - N/A   Scattered Clouds
12:30 AM 82.4 °F 89.5 °F 75.2 °F 79% 29.80 in 5.0 mi West 8.1 mph - N/A   Scattered Clouds
1:00 AM 82.4 °F 88.2 °F 73.4 °F 74% 29.80 in 5.0 mi West 10.4 mph - N/A   Scattered Clouds
1:30 AM 82.4 °F 88.2 °F 73.4 °F 74% 29.80 in 5.0 mi WNW 8.1 mph - N/A   Scattered Clouds
2:00 AM 82.4 °F 89.5 °F 75.2 °F 79% 29.77 in 5.0 mi WNW 6.9 mph - N/A   Scattered Clouds
2:30 AM 82.4 °F 89.5 °F 75.2 °F 79% 29.77 in 5.0 mi West 9.2 mph - N/A   Mostly Cloudy
3:00 AM 82.4 °F 89.5 °F 75.2 °F 79% 29.77 in 4.3 mi West 10.4 mph - N/A   Mostly Cloudy
3:30 AM 82.4 °F 89.5 °F 75.2 °F 79% 29.77 in 4.3 mi West 11.5 mph - N/A   Mostly Cloudy
4:00 AM 82.4 °F 89.5 °F 75.2 °F 79% 29.77 in 4.3 mi West 11.5 mph - N/A   Scattered Clouds
4:30 AM 82.4 °F 89.5 °F 75.2 °F 79% 29.77 in 4.3 mi West 9.2 mph - N/A   Scattered Clouds
5:00 AM 82.4 °F 88.2 °F 73.4 °F 74% 29.77 in 4.3 mi West 10.4 mph - N/A   Scattered Clouds
5:30 AM 82.4 °F 89.5 °F 75.2 °F 79% 29.77 in 4.3 mi West 9.2 mph - N/A   Scattered Clouds
6:00 AM 82.4 °F 89.5 °F 75.2 °F 79% 29.77 in 4.3 mi West 10.4 mph - N/A   Mostly Cloudy
6:30 AM 80.6 °F 84.6 °F 71.6 °F 74% 29.77 in 4.3 mi WNW 8.1 mph - N/A   Mostly Cloudy
7:00 AM 83 °F - 77 °F 77% 29.75 in 6 mi West 8.1 mph - -   Scattered Clouds
7:00 AM 82.4 °F 89.5 °F 75.2 °F 79% 29.77 in 4.3 mi West 8.1 mph - N/A   Mostly Cloudy
7:30 AM 82.4 °F 89.5 °F 75.2 °F 79% 29.80 in 4.3 mi West 11.5 mph - N/A   Mostly Cloudy
8:00 AM 84.2 °F 92.3 °F 75.2 °F 74% 29.80 in 4.3 mi West 11.5 mph - N/A   Mostly Cloudy
8:30 AM 82.4 °F 89.5 °F 75.2 °F 79% 29.80 in 5.0 mi NNW 3.5 mph - N/A   Mostly Cloudy
9:00 AM 80.6 °F 86.2 °F 75.2 °F 84% 29.80 in 4.3 mi NW 4.6 mph - N/A   Mostly Cloudy
10:00 AM 84.2 °F 94.1 °F 77.0 °F 79% 29.80 in 4.3 mi WNW 10.4 mph - N/A   Mostly Cloudy
10:30 AM 87.8 °F 97.6 °F 75.2 °F 66% 29.80 in 5.0 mi West 16.1 mph - N/A   Mostly Cloudy
11:00 AM 87.8 °F 97.6 °F 75.2 °F 66% 29.80 in 5.0 mi West 13.8 mph - N/A   Mostly Cloudy
11:30 AM 86.0 °F 95.1 °F 75.2 °F 70% 29.80 in 5.0 mi West 12.7 mph - N/A   Mostly Cloudy
12:30 PM 84.2 °F 92.3 °F 75.2 °F 74% 29.80 in 4.3 mi West 12.7 mph - N/A   Mostly Cloudy
1:00 PM 83 °F - 79 °F 83% 29.76 in 5 mi West 4.6 mph - - Rain Light Rain
1:00 PM 80.6 °F 86.2 °F 75.2 °F 84% 29.78 in 4.3 mi WSW 5.8 mph - N/A   Mostly Cloudy
1:30 PM 82.4 °F 87.2 °F 71.6 °F 70% 29.77 in 4.3 mi West 17.3 mph - N/A   Mostly Cloudy
2:00 PM 86.0 °F 93.4 °F 73.4 °F 66% 29.74 in 5.0 mi West 13.8 mph - N/A   Mostly Cloudy
2:30 PM 84.2 °F 92.3 °F 75.2 °F 74% 29.74 in 5.0 mi West 15.0 mph - N/A   Mostly Cloudy
3:00 PM 82.4 °F 88.2 °F 73.4 °F 74% 29.74 in 4.3 mi SSW 5.8 mph - N/A   Mostly Cloudy
3:30 PM 80.6 °F 86.2 °F 75.2 °F 84% 29.74 in 4.3 mi North 5.8 mph - N/A   Mostly Cloudy
4:00 PM 78.8 °F - 71.6 °F 78% 29.74 in 3.1 mi SSW 5.8 mph - N/A Rain Rain
4:30 PM 78.8 °F - 73.4 °F 83% 29.74 in 3.1 mi Calm Calm - N/A Rain Light Rain
5:00 PM 78.8 °F - 73.4 °F 83% 29.74 in 4.3 mi WNW 15.0 mph - N/A   Mostly Cloudy
5:30 PM 78.8 °F - 73.4 °F 83% 29.74 in 4.3 mi NNW 8.1 mph - N/A   Mostly Cloudy
6:00 PM 77.0 °F - 73.4 °F 89% 29.74 in 4.3 mi SW 4.6 mph - N/A   Mostly Cloudy
6:30 PM 77.0 °F - 73.4 °F 89% 29.74 in 4.3 mi Calm Calm - N/A   Mostly Cloudy
7:00 PM 79 °F - 75 °F 83% 29.70 in 5 mi Calm Calm - -   Mist
7:00 PM 77.0 °F - 73.4 °F 89% 29.74 in 4.3 mi Calm Calm - N/A   Mostly Cloudy
7:30 PM 77.0 °F - 75.2 °F 94% 29.74 in 4.3 mi ENE 3.5 mph - N/A   Mostly Cloudy
8:00 PM 77.0 °F - 75.2 °F 94% 29.77 in 4.3 mi ENE 4.6 mph - N/A   Mostly Cloudy
8:30 PM 77.0 °F - 75.2 °F 94% 29.77 in 5.0 mi Calm Calm - N/A   Mostly Cloudy
9:00 PM 77.0 °F - 73.4 °F 89% 29.80 in 5.0 mi Calm Calm - N/A   Mostly Cloudy
9:30 PM 77.0 °F - 75.2 °F 94% 29.80 in 5.0 mi Calm Calm - N/A   Mostly Cloudy
10:00 PM 77.0 °F - 75.2 °F 94% 29.80 in 5.0 mi Calm Calm - N/A   Mostly Cloudy
10:30 PM 78.8 °F - 75.2 °F 89% 29.83 in 5.0 mi NNE 6.9 mph - N/A Rain Light Rain
11:00 PM 78.8 °F - 73.4 °F 83% 29.83 in 5.0 mi NW 5.8 mph - N/A Rain Light Rain
11:30 PM 77.0 °F - 73.4 °F 89% 29.83 in 3.1 mi NNW 11.5 mph - N/A Rain Rain